Tracking 30923 objects as of 1-Jul-2025
HD Live streaming from Space Station
objects crossing your sky now

SL-6 R/B(2)

Track SL-6 R/B(2) now!


NORAD ID: 10949
Int'l Code: 1978-055E
Perigee: 1,166.4 km
Apogee: 39,837.2 km
Inclination: 63.9 °
Period: 730.7 minutes
Semi major axis: 26872 km
RCS: 7.3545 m2 (large)
Launch date: June 2, 1978
Source: Commonwealth of Independent States (former USSR) (CIS)
Launch site: PLESETSK MISSILE AND SPACE COMPLEX (PKMTR)

Note: This is a ROCKET BODY
Your satellite tracking list
Your tracking list is empty




NASA's NSSDC Master Catalog

Two Line Element Set (TLE):
1 10949U 78055E   25180.31346345  .00000850  00000-0  29274-2 0  9992
2 10949  63.8994 275.6885 7195174 278.4241  12.9570  1.97075962233218
Source of the keplerian elements: AFSPC